Time,TemperatureF,DewpointF,PressureIn,WindDirection,WindDirectionDegrees,WindSpeedMPH,WindSpeedGustMPH,Humidity,HourlyPrecipIn,Conditions,Clouds,dailyrainin,SoftwareType,DateUTC
2013-11-12 00:22:00,21.0,14.0,30.53,WNW,293,5.0,12.0,73,0.00,,,0.01,,2013-11-12 06:22:00,
2013-11-12 00:42:00,20.0,13.0,30.53,WNW,298,6.0,12.0,73,0.00,,,0.01,,2013-11-12 06:42:00,
2013-11-12 00:52:00,20.0,13.0,30.53,NW,310,4.0,11.0,74,0.00,,,0.01,,2013-11-12 06:52:00,
2013-11-12 01:11:00,20.0,13.0,30.53,WNW,289,7.0,12.0,74,0.00,,,0.01,,2013-11-12 07:11:00,
2013-11-12 01:21:00,19.0,12.0,30.54,NW,312,7.0,10.0,75,0.00,,,0.01,,2013-11-12 07:21:00,
2013-11-12 01:42:00,19.0,12.0,30.54,WNW,301,5.0,12.0,75,0.00,,,0.01,,2013-11-12 07:42:00,
2013-11-12 01:52:00,19.0,13.0,30.54,NW,311,4.0,10.0,76,0.00,,,0.01,,2013-11-12 07:52:00,
2013-11-12 02:11:00,19.0,13.0,30.55,NNW,346,5.0,9.0,76,0.00,,,0.01,,2013-11-12 08:11:00,
2013-11-12 02:21:00,19.0,13.0,30.55,NW,324,4.0,10.0,76,0.00,,,0.01,,2013-11-12 08:21:00,
2013-11-12 02:42:00,18.0,12.0,30.56,NW,318,5.0,10.0,76,0.00,,,0.01,,2013-11-12 08:42:00,
2013-11-12 02:52:00,18.0,12.0,30.56,NW,325,4.0,9.0,77,0.00,,,0.01,,2013-11-12 08:52:00,
2013-11-12 03:21:00,18.0,12.0,30.56,West,280,6.0,9.0,77,0.00,,,0.01,,2013-11-12 09:21:00,
2013-11-12 03:42:00,18.0,12.0,30.58,NNW,329,4.0,9.0,78,0.00,,,0.01,,2013-11-12 09:42:00,
2013-11-12 03:53:00,17.0,11.0,30.58,NW,321,3.0,10.0,78,0.00,,,0.01,,2013-11-12 09:53:00,
2013-11-12 04:12:00,17.0,11.0,30.58,NNW,336,4.0,10.0,78,0.00,,,0.01,,2013-11-12 10:12:00,
2013-11-12 04:23:00,17.0,11.0,30.58,WNW,297,6.0,10.0,78,0.00,,,0.01,,2013-11-12 10:23:00,
2013-11-12 04:42:00,17.0,12.0,30.59,WNW,300,4.0,7.0,79,0.00,,,0.01,,2013-11-12 10:42:00,
2013-11-12 04:53:00,16.0,11.0,30.59,West,280,4.0,7.0,80,0.00,,,0.01,,2013-11-12 10:53:00,
2013-11-12 05:12:00,16.0,11.0,30.60,NW,314,3.0,6.0,80,0.00,,,0.01,,2013-11-12 11:12:00,
2013-11-12 05:22:00,16.0,11.0,30.60,WNW,292,4.0,9.0,80,0.00,,,0.00,,2013-11-12 11:22:00,
2013-11-12 05:42:00,15.0,10.0,30.60,NW,322,4.0,8.0,80,0.00,,,0.00,,2013-11-12 11:42:00,
2013-11-12 05:52:00,15.0,10.0,30.60,NW,311,3.0,7.0,81,0.00,,,0.00,,2013-11-12 11:52:00,
2013-11-12 06:11:00,15.0,10.0,30.61,NW,311,2.0,7.0,81,0.00,,,0.00,,2013-11-12 12:11:00,
2013-11-12 06:21:00,15.0,10.0,30.61,NW,309,4.0,7.0,81,0.00,,,0.00,,2013-11-12 12:21:00,
2013-11-12 06:42:00,15.0,10.0,30.61,WNW,295,4.0,7.0,81,0.00,,,0.00,,2013-11-12 12:42:00,
2013-11-12 06:52:00,14.0,10.0,30.61,WNW,291,3.0,7.0,82,0.00,,,0.00,,2013-11-12 12:52:00,
2013-11-12 07:11:00,14.0,10.0,30.61,NW,317,3.0,6.0,82,0.00,,,0.00,,2013-11-12 13:11:00,
2013-11-12 07:22:00,14.0,10.0,30.61,WNW,301,3.0,9.0,83,0.00,,,0.00,,2013-11-12 13:22:00,
2013-11-12 07:42:00,14.0,10.0,30.62,WNW,300,6.0,9.0,82,0.00,,,0.00,,2013-11-12 13:42:00,
2013-11-12 07:52:00,15.0,11.0,30.62,WNW,295,5.0,9.0,82,0.00,,,0.00,,2013-11-12 13:52:00,
2013-11-12 08:12:00,15.0,10.0,30.62,WNW,298,6.0,10.0,81,0.00,,,0.00,,2013-11-12 14:12:00,
2013-11-12 08:22:00,16.0,11.0,30.62,WNW,287,6.0,9.0,81,0.00,,,0.00,,2013-11-12 14:22:00,
2013-11-12 08:42:00,16.0,11.0,30.63,NW,321,5.0,12.0,80,0.00,,,0.00,,2013-11-12 14:42:00,
2013-11-12 08:52:00,16.0,11.0,30.63,NNW,327,6.0,12.0,79,0.00,,,0.00,,2013-11-12 14:52:00,
2013-11-12 09:22:00,16.0,11.0,30.64,West,271,5.0,11.0,79,0.00,,,0.00,,2013-11-12 15:22:00,
2013-11-12 09:43:00,17.0,12.0,30.63,WNW,298,5.0,11.0,79,0.00,,,0.00,,2013-11-12 15:43:00,
2013-11-12 09:53:00,18.0,13.0,30.63,West,268,5.0,10.0,79,0.00,,,0.00,,2013-11-12 15:53:00,
2013-11-12 10:23:00,18.0,12.0,30.63,NW,312,5.0,13.0,76,0.00,,,0.00,,2013-11-12 16:23:00,
2013-11-12 10:42:00,19.0,12.0,30.63,West,271,6.0,13.0,75,0.00,,,0.00,,2013-11-12 16:42:00,
2013-11-12 10:53:00,19.0,11.0,30.63,WNW,294,7.0,12.0,72,0.00,,,0.00,,2013-11-12 16:53:00,
2013-11-12 11:12:00,20.0,12.0,30.63,West,261,5.0,10.0,72,0.00,,,0.00,,2013-11-12 17:12:00,
2013-11-12 11:22:00,20.0,12.0,30.62,WSW,252,7.0,14.0,70,0.00,,,0.00,,2013-11-12 17:22:00,
2013-11-12 11:52:00,21.0,12.0,30.61,West,265,6.0,13.0,69,0.00,,,0.00,,2013-11-12 17:52:00,
2013-11-12 12:12:00,22.0,13.0,30.61,WNW,288,8.0,12.0,68,0.00,,,0.00,,2013-11-12 18:12:00,
2013-11-12 12:23:00,22.0,12.0,30.61,NW,310,6.0,14.0,66,0.00,,,0.00,,2013-11-12 18:23:00,
2013-11-12 12:42:00,23.0,13.0,30.60,West,273,7.0,14.0,64,0.00,,,0.00,,2013-11-12 18:42:00,
2013-11-12 12:52:00,23.0,13.0,30.60,WNW,298,7.0,11.0,65,0.00,,,0.00,,2013-11-12 18:52:00,
2013-11-12 13:22:00,24.0,13.0,30.58,NW,323,8.0,13.0,62,0.00,,,0.00,,2013-11-12 19:22:00,
2013-11-12 13:42:00,24.0,14.0,30.57,West,275,5.0,13.0,64,0.00,,,0.00,,2013-11-12 19:42:00,
2013-11-12 13:52:00,24.0,13.0,30.56,WNW,290,7.0,13.0,61,0.00,,,0.00,,2013-11-12 19:52:00,
2013-11-12 14:11:00,25.0,13.0,30.56,West,259,3.0,10.0,60,0.00,,,0.00,,2013-11-12 20:11:00,
2013-11-12 14:21:00,25.0,13.0,30.55,WNW,286,7.0,12.0,60,0.00,,,0.00,,2013-11-12 20:21:00,
2013-11-12 14:52:00,26.0,14.0,30.55,WNW,288,4.0,13.0,59,0.00,,,0.00,,2013-11-12 20:52:00,
2013-11-12 15:12:00,26.0,13.0,30.55,WNW,288,5.0,13.0,57,0.00,,,0.00,,2013-11-12 21:12:00,
2013-11-12 15:22:00,26.0,12.0,30.54,WSW,251,7.0,13.0,56,0.00,,,0.00,,2013-11-12 21:22:00,
2013-11-12 15:44:00,27.0,14.0,30.54,West,267,3.0,10.0,57,0.00,,,0.00,,2013-11-12 21:44:00,
2013-11-12 15:54:00,26.0,13.0,30.54,WSW,245,7.0,12.0,57,0.00,,,0.00,,2013-11-12 21:54:00,
2013-11-12 16:24:00,25.0,12.0,30.53,WSW,252,5.0,8.0,58,0.00,,,0.00,,2013-11-12 22:24:00,
2013-11-12 16:54:00,25.0,13.0,30.52,West,273,2.0,9.0,59,0.00,,,0.00,,2013-11-12 22:54:00,
2013-11-12 17:12:00,24.0,13.0,30.51,West,279,2.0,6.0,61,0.00,,,0.00,,2013-11-12 23:12:00,
2013-11-12 17:23:00,24.0,13.0,30.51,West,266,4.0,8.0,63,0.00,,,0.00,,2013-11-12 23:23:00,
2013-11-12 17:42:00,24.0,13.0,30.51,West,281,3.0,7.0,63,0.00,,,0.00,,2013-11-12 23:42:00,
2013-11-12 17:54:00,24.0,14.0,30.50,WSW,254,2.0,6.0,64,0.00,,,0.00,,2013-11-12 23:54:00,
2013-11-12 18:11:00,23.0,13.0,30.50,West,270,3.0,7.0,66,0.00,,,0.00,,2013-11-13 00:11:00,
2013-11-12 18:22:00,23.0,14.0,30.50,West,263,3.0,7.0,68,0.00,,,0.00,,2013-11-13 00:22:00,
2013-11-12 18:42:00,23.0,14.0,30.50,WSW,247,3.0,6.0,68,0.00,,,0.00,,2013-11-13 00:42:00,
2013-11-12 18:52:00,23.0,14.0,30.49,WSW,257,1.0,5.0,69,0.00,,,0.00,,2013-11-13 00:52:00,
2013-11-12 19:11:00,23.0,15.0,30.49,West,263,3.0,8.0,70,0.00,,,0.00,,2013-11-13 01:11:00,
2013-11-12 19:22:00,23.0,15.0,30.49,West,263,3.0,8.0,71,0.00,,,0.00,,2013-11-13 01:22:00,
2013-11-12 19:42:00,23.0,15.0,30.47,WSW,254,4.0,8.0,70,0.00,,,0.00,,2013-11-13 01:42:00,
2013-11-12 19:52:00,23.0,15.0,30.47,South,186,3.0,8.0,70,0.00,,,0.00,,2013-11-13 01:52:00,
2013-11-12 20:22:00,22.0,14.0,30.47,West,278,3.0,9.0,72,0.00,,,0.00,,2013-11-13 02:22:00,
2013-11-12 20:42:00,22.0,15.0,30.46,WNW,285,1.0,9.0,73,0.00,,,0.00,,2013-11-13 02:42:00,
2013-11-12 20:52:00,22.0,15.0,30.46,West,267,3.0,8.0,74,0.00,,,0.00,,2013-11-13 02:52:00,
2013-11-12 21:12:00,22.0,15.0,30.47,WSW,238,3.0,8.0,75,0.00,,,0.00,,2013-11-13 03:12:00,
2013-11-12 21:22:00,21.0,14.0,30.47,SW,232,4.0,9.0,75,0.00,,,0.00,,2013-11-13 03:22:00,
2013-11-12 21:44:00,21.0,14.0,30.46,WSW,239,4.0,8.0,75,0.00,,,0.00,,2013-11-13 03:44:00,
2013-11-12 21:54:00,21.0,15.0,30.46,WSW,244,4.0,11.0,76,0.00,,,0.00,,2013-11-13 03:54:00,
2013-11-12 22:14:00,21.0,15.0,30.45,WSW,258,3.0,9.0,76,0.00,,,0.00,,2013-11-13 04:14:00,
2013-11-12 22:42:00,20.0,14.0,30.44,NNW,342,3.0,7.0,78,0.00,,,0.00,,2013-11-13 04:42:00,
2013-11-12 22:53:00,20.0,14.0,30.44,West,269,5.0,10.0,78,0.00,,,0.00,,2013-11-13 04:53:00,
2013-11-12 23:13:00,20.0,15.0,30.43,WSW,243,5.0,13.0,79,0.00,,,0.00,,2013-11-13 05:13:00,
2013-11-12 23:23:00,20.0,15.0,30.43,WNW,290,3.0,9.0,79,0.00,,,0.00,,2013-11-13 05:23:00,
2013-11-12 23:54:00,20.0,15.0,30.42,West,278,3.0,8.0,79,0.00,,,0.00,,2013-11-13 05:54:00,